[[{"header":{"parameterUnit":"m.s-1","parameterCategory":1,"la1":30.2991,"la2":30.254,"lo1":-89.0895,"lo2":-89.0444,"dy":0.0017,"dx":0.0017,"nx":28,"ny":28,"refTime":"2024-06-17T09:00:00:Z","depth":0,"parameterNumber":2,"parameterNumberName":"U-component_of_WINDS"},"data":[0,0,0,0,0,0,0,0,0,0,0,0,0,0,0,0,0,0,0,0,0,0,0,0,0,0,0,0,0,0,0,0,0,0,0,0,0,0,0,0,0,0,0,0,0,0,0,0,0,0,0,0,0,0,0,0,0,0,-6.2057,-6.2059,0,-6.2199,-6.2201,-6.2203,-6.2146,-6.2143,-6.214,-6.2137,-6.2279,-6.2286,-6.2293,0,0,0,0,0,0,0,0,0,0,0,0,0,-6.1735,-6.1742,-6.2057,-6.2059,-6.2061,-6.2199,-6.2201,-6.2203,-6.2147,-6.2143,-6.2139,-6.2135,-6.2277,-6.2285,-6.2293,0,0,0,0,0,0,0,0,0,0,0,0,0,-6.1876,-6.1744,-6.2057,-6.205,-6.205,-6.2199,-6.2201,-6.2203,-6.2148,-6.2143,-6.2138,-6.2133,-6.2274,-6.2284,-6.2294,-6.2457,0,0,-6.2326,-6.233,0,0,0,0,0,0,0,0,-6.1868,-6.1888,-6.2049,-6.205,-6.2052,-6.215,-6.214,-6.2288,-6.2149,-6.2111,-6.2137,-6.2131,-6.224,-6.2253,-6.229,-6.2464,-6.247,-6.2327,-6.2333,-6.2337,-6.234,0,0,0,0,0,0,0,-6.1858,-6.1881,-6.2113,-6.2051,-6.2053,-6.2038,-6.2053,-6.2168,-6.2201,-6.2114,-6.211,-6.2128,-6.224,-6.228,-6.2293,-6.2472,-6.2326,-6.2336,-6.2342,-6.2346,-6.2784,-6.2789,0,0,0,0,0,0,-6.1849,-6.1874,-6.2109,-6.2118,-6.1946,-6.2048,-6.2065,-6.2123,-6.22,-6.2207,-6.2132,-6.2125,-6.2265,-6.2281,-6.2298,-6.2491,-6.2337,-6.2347,-6.2353,-6.2779,-6.2785,-6.2791,0,0,0,0,0,0,-6.1842,-6.187,-6.2103,-6.1995,-6.2023,-6.2059,-6.2126,-6.2129,-6.2169,-6.2214,-6.2219,-6.2167,-6.2262,-6.2283,-6.2418,-6.2495,-6.2352,-6.2361,-6.2772,-6.2781,-6.2788,-6.2879,0,0,0,0,0,0,-6.1833,-6.1868,-6.1931,-6.1997,-6.2029,-6.2221,-6.2131,-6.2135,-6.2188,-6.218,-6.2248,-6.2255,-6.226,-6.2403,-6.2428,-6.2506,-6.2369,-6.2765,-6.2776,-6.2786,-6.2869,-6.289,-6.2907,0,0,0,0,0,-6.1822,-6.1951,-6.1934,-6.1963,-6.2109,-6.2226,-6.2245,-6.2248,-6.2194,-6.2257,-6.2285,-6.2253,-6.2484,-6.2417,-6.2445,-6.2528,-6.276,-6.2773,-6.2785,-6.2861,-6.2886,-6.2906,0,0,0,0,0,0,-6.1892,-6.1959,-6.1942,-6.2096,-6.2156,-6.2216,-6.2295,-6.2275,-6.235,-6.2339,-6.234,-6.2356,-6.2494,-6.2525,-6.2449,-6.2688,-6.2614,-6.2632,-6.2662,-6.2686,-6.2704,-6.2691,-6.2378,0,0,0,0,0,-6.1926,-6.2017,-6.207,-6.2201,-6.2232,-6.2259,-6.231,-6.2308,-6.237,-6.2394,-6.2432,-6.2493,-6.2578,-6.2635,-6.2716,-6.2876,-6.2888,-6.2946,-6.2965,-6.298,-6.2994,-6.3078,-6.3104,-6.2831,-6.2831,-6.2831,0,0,-6.1996,-6.2044,-6.2101,-6.2217,-6.2263,-6.2355,-6.2281,-6.2382,-6.2449,-6.2409,-6.2537,-6.2568,-6.2635,-6.2782,-6.2849,-6.2812,-6.3073,-6.2996,-6.3008,-6.3014,-6.3093,-6.3119,-6.3142,-6.284,-6.2838,-6.2837,0,0,-6.217,-6.2217,-6.233,-6.2378,-6.2449,-6.2466,-6.2493,-6.2557,-6.2576,-6.2705,-6.2676,-6.2757,-6.2906,-6.2954,-6.2998,-6.3191,-6.3163,-6.3219,-6.3314,-6.3395,-6.3417,-6.3436,-6.3501,-6.3525,-6.3234,-6.3234,-6.3234,0,-6.2247,-6.2386,-6.239,-6.2493,-6.2544,-6.2514,-6.2627,-6.2673,-6.2767,-6.2802,-6.2761,-6.2946,-6.2989,-6.3145,-6.3192,-6.3231,-6.326,-6.3208,-6.3414,-6.3433,-6.345,-6.3512,-6.3537,-6.324,-6.3239,-6.3239,-6.3238,0,-6.2476,-6.2572,-6.2655,-6.2746,-6.2807,-6.2915,-6.2934,-6.2995,-6.2989,-6.301,-6.3141,-6.3193,-6.3283,-6.3321,-6.3316,-6.3476,-6.3451,-6.3413,-6.3336,-6.3482,-6.354,-6.3564,-6.3248,-6.3246,-6.3244,-6.3243,0,0,-6.2694,-6.2788,-6.2817,-6.2857,-6.2934,-6.3008,-6.3115,-6.3204,-6.3254,-6.3321,-6.3408,-6.3535,-6.35,-6.355,-6.355,-6.3622,-6.3768,-6.3574,-6.3576,-6.3605,-6.3944,-6.3969,-6.3996,-6.3752,-6.3757,-6.376,-6.3937,0,-6.287,-6.3056,-6.3064,-6.3233,-6.332,-6.3294,-6.3386,-6.3442,-6.3466,-6.3543,-6.3569,-6.3657,-6.3606,-6.3635,-6.3706,-6.3735,-6.3835,-6.3723,-6.3829,-6.3833,-6.3808,-6.4027,-6.4054,-6.4218,-6.396,-6.3964,-6.3967,0,-6.31,-6.3173,-6.335,-6.3413,-6.345,-6.3533,-6.3614,-6.369,-6.3753,-6.3765,-6.3821,-6.3811,-6.3918,-6.3843,-6.399,-6.3913,-6.3958,-6.3979,-6.3986,-6.3991,-6.3905,-6.4034,-6.4271,-6.4293,-6.4003,-6.4,-6.3998,0,-6.3235,-6.3379,-6.3503,-6.3539,-6.3617,-6.3675,-6.371,-6.3768,-6.3821,-6.3893,-6.3926,-6.4011,-6.4055,-6.412,-6.4132,-6.4077,-6.4278,-6.4204,-6.4287,-6.4287,-6.4326,-6.4323,-6.4568,-6.4364,-6.4364,-6.4363,-6.4363,0,-6.3428,-6.3537,-6.3565,-6.364,-6.3761,-6.3769,-6.3888,-6.3919,-6.3972,-6.4052,-6.4036,-6.4112,-6.4126,-6.4204,-6.4216,-6.4333,-6.4355,-6.4365,-6.4366,-6.4364,-6.4362,-6.4389,-6.4376,-6.437,-6.4369,-6.4367,-6.4366,0,-6.3598,-6.3622,-6.3754,-6.3817,-6.3836,-6.3921,-6.3974,-6.4047,-6.4069,-6.4171,-6.4196,-6.423,-6.4322,-6.4342,-6.4451,-6.4459,-6.4597,-6.4589,-6.4575,-6.4572,-6.4653,-6.4644,-6.4921,-6.4956,-6.4733,-6.4736,-6.4737,0,-6.3717,-6.3799,-6.3871,-6.3924,-6.3961,-6.4047,-6.4101,-6.4113,-6.417,-6.4248,-6.431,-6.4401,-6.4472,-6.462,-6.4654,-6.4738,-6.4728,-6.482,-6.474,-6.4735,-6.4724,-6.4717,-6.4724,-6.4833,-6.4836,-6.4838,-6.4839,0,-6.3924,-6.3931,-6.4009,-6.4092,-6.4156,-6.4222,-6.4284,-6.4329,-6.4349,-6.4413,-6.4507,-6.4563,-6.4675,-6.4763,-6.4847,-6.4882,-6.4863,-6.4865,-6.4888,-6.4884,-6.4871,-6.4874,-6.4611,-6.4857,-6.4855,-6.4854,-6.4853,-6.4852,-6.4069,-6.414,-6.4201,-6.4288,-6.4337,-6.4395,-6.4465,-6.4497,-6.4575,-6.4666,-6.467,-6.4771,-6.4832,-6.4942,-6.4982,-6.5061,-6.5032,-6.5067,-6.5074,-6.5081,-6.5086,-6.4863,-6.5077,-6.5077,-6.5076,-6.5076,-6.5075,0,-6.4271,-6.4309,-6.4389,-6.4477,-6.4545,-6.4525,-6.4593,-6.465,-6.474,-6.4799,-6.487,-6.4977,-6.5063,-6.5106,-6.5191,-6.5245,-6.5239,-6.5267,-6.526,-6.5268,-6.511,-6.5079,-6.527,-6.527,-6.527,-6.527,-6.527,-6.527,-6.4383,-6.4501,-6.4517,-6.4658,-6.4696,-6.4795,-6.4835,-6.4889,-6.4935,-6.5055,-6.5127,-6.5154,-6.5206,-6.5295,-6.5373,-6.5383,-6.5413,-6.5444,-6.5449,-6.5299,-6.5279,-6.526,-6.5231,-6.5452,-6.5452,-6.5601,-6.5602,-6.5603]},{"header":{"parameterUnit":"m.s-1","parameterCategory":1,"la1":30.2991,"la2":30.254,"lo1":-89.0895,"lo2":-89.0444,"dy":0.0017,"dx":0.0017,"nx":28,"ny":28,"refTime":"2024-06-17T09:00:00:Z","depth":0,"parameterNumber":3,"parameterNumberName":"V-component_of_WINDS"},"data":[0,0,0,0,0,0,0,0,0,0,0,0,0,0,0,0,0,0,0,0,0,0,0,0,0,0,0,0,0,0,0,0,0,0,0,0,0,0,0,0,0,0,0,0,0,0,0,0,0,0,0,0,0,0,0,0,0,0,2.389,2.389,0,2.3944,2.3944,2.3945,2.3911,2.391,2.3908,2.3907,2.3962,2.3964,2.3967,0,0,0,0,0,0,0,0,0,0,0,0,0,2.3758,2.376,2.389,2.389,2.3891,2.3944,2.3944,2.3945,2.3912,2.391,2.3908,2.3906,2.3961,2.3964,2.3968,0,0,0,0,0,0,0,0,0,0,0,0,0,2.3814,2.3761,2.3889,2.3881,2.388,2.3943,2.3944,2.3945,2.3912,2.391,2.3907,2.3905,2.396,2.3964,2.3968,2.4043,0,0,2.3982,2.3983,0,0,0,0,0,0,0,0,2.3811,2.3819,2.3881,2.3881,2.3881,2.3918,2.3918,2.3978,2.3913,2.39,2.3907,2.3904,2.3949,2.3954,2.397,2.4045,2.4048,2.3982,2.3985,2.3987,2.3988,0,0,0,0,0,0,0,2.3807,2.3816,2.3911,2.3882,2.3882,2.3874,2.3879,2.3929,2.3937,2.3901,2.3899,2.3906,2.3949,2.3965,2.3971,2.4048,2.3982,2.3986,2.3988,2.399,2.4188,2.4191,0,0,0,0,0,0,2.3804,2.3813,2.3909,2.3913,2.3839,2.3878,2.3884,2.3909,2.3937,2.3939,2.3908,2.3904,2.3959,2.3966,2.3972,2.4061,2.3986,2.3991,2.3993,2.4186,2.4189,2.4192,0,0,0,0,0,0,2.3801,2.3812,2.3907,2.3862,2.3874,2.3883,2.3911,2.3911,2.3928,2.3942,2.3943,2.3923,2.3957,2.3966,2.4026,2.4063,2.3993,2.3997,2.4183,2.4187,2.419,2.424,0,0,0,0,0,0,2.3797,2.3812,2.384,2.3863,2.3876,2.3959,2.3913,2.3914,2.3936,2.3931,2.3957,2.3958,2.3956,2.4019,2.403,2.4068,2.4,2.4179,2.4184,2.4189,2.4235,2.4246,2.4254,0,0,0,0,0,2.3793,2.3852,2.3842,2.3853,2.3912,2.3962,2.3969,2.3966,2.3939,2.3967,2.3976,2.3958,2.4057,2.4026,2.4037,2.4077,2.4177,2.4183,2.4189,2.4231,2.4244,2.4254,0,0,0,0,0,0,2.3832,2.3855,2.3844,2.3912,2.3935,2.3956,2.3992,2.3979,2.401,2.4004,2.3999,2.4005,2.4067,2.4078,2.4042,2.4151,2.4113,2.4121,2.4141,2.4153,2.4162,2.4158,2.4004,0,0,0,0,0,2.3849,2.3888,2.3905,2.3964,2.3976,2.3982,2.4004,2.3999,2.4023,2.4032,2.4046,2.4069,2.4106,2.413,2.4165,2.4237,2.4242,2.427,2.428,2.4287,2.4295,2.4334,2.4347,2.4211,2.4211,2.4211,0,0,2.3884,2.3901,2.3926,2.3972,2.399,2.403,2.3991,2.4035,2.4064,2.4039,2.4096,2.4107,2.4133,2.4199,2.4229,2.421,2.4333,2.4295,2.4301,2.4304,2.4341,2.4354,2.4366,2.4215,2.4214,2.4214,0,0,2.3969,2.3985,2.4036,2.4055,2.4082,2.4085,2.4098,2.4121,2.4127,2.4184,2.4166,2.4201,2.4264,2.4284,2.4302,2.4395,2.4379,2.4406,2.4455,2.4493,2.4504,2.4513,2.4546,2.4558,2.4413,2.4414,2.4414,0,2.4009,2.4068,2.4064,2.411,2.4131,2.411,2.4161,2.418,2.4217,2.4232,2.421,2.429,2.4306,2.4376,2.4399,2.4415,2.4428,2.4403,2.4503,2.4512,2.4521,2.4552,2.4565,2.4417,2.4416,2.4416,2.4416,0,2.4116,2.4158,2.4196,2.4232,2.4258,2.4306,2.4309,2.4335,2.4329,2.4335,2.4393,2.4412,2.445,2.4467,2.4461,2.4537,2.4525,2.4503,2.4465,2.4537,2.4566,2.4578,2.4421,2.442,2.4419,2.4418,0,0,2.4226,2.426,2.4274,2.429,2.4319,2.4351,2.4399,2.4437,2.4459,2.4486,2.4525,2.458,2.4561,2.4581,2.4577,2.4611,2.4683,2.4586,2.4586,2.4603,2.4768,2.4784,2.4798,2.4673,2.4676,2.4677,2.4766,0,2.4312,2.4395,2.4393,2.447,2.4509,2.449,2.4532,2.4554,2.4561,2.4595,2.4603,2.4641,2.4613,2.4626,2.4658,2.4668,2.4716,2.4661,2.471,2.4712,2.4703,2.4813,2.4829,2.4912,2.4778,2.4779,2.4781,0,2.4423,2.4453,2.4535,2.4558,2.4574,2.4611,2.4646,2.4678,2.4703,2.4706,2.473,2.4721,2.4769,2.473,2.4797,2.4759,2.4779,2.4787,2.479,2.4794,2.475,2.482,2.4939,2.4951,2.4799,2.4797,2.4796,0,2.4495,2.4556,2.4613,2.4627,2.4656,2.4683,2.4696,2.4719,2.4741,2.4772,2.4786,2.4822,2.4841,2.4869,2.487,2.4841,2.4937,2.4898,2.4941,2.4941,2.4961,2.496,2.5084,2.4975,2.4975,2.4974,2.4974,0,2.4591,2.4641,2.4645,2.468,2.4736,2.4733,2.4789,2.4799,2.482,2.4856,2.4843,2.4877,2.4876,2.4912,2.4913,2.4968,2.4977,2.498,2.498,2.4981,2.4981,2.4994,2.4988,2.4978,2.4977,2.4976,2.4976,0,2.468,2.4685,2.4746,2.4768,2.4775,2.4815,2.4834,2.4867,2.4874,2.492,2.4931,2.4941,2.4981,2.4985,2.5033,2.5033,2.51,2.5093,2.5091,2.509,2.5132,2.5128,2.5269,2.5288,2.5167,2.5168,2.5169,0,2.4741,2.4779,2.4806,2.4829,2.4844,2.4882,2.4905,2.4904,2.4929,2.4961,2.499,2.503,2.5061,2.5128,2.5139,2.5175,2.5169,2.5216,2.5174,2.5175,2.517,2.5167,2.5171,2.5224,2.5225,2.5226,2.5227,0,2.4848,2.4849,2.4882,2.4918,2.4946,2.4974,2.5,2.502,2.5022,2.505,2.5092,2.5117,2.5165,2.5205,2.524,2.5254,2.5241,2.5241,2.5252,2.5254,2.5251,2.5253,2.5113,2.5237,2.5236,2.5235,2.5235,2.5235,2.4925,2.4958,2.4982,2.502,2.504,2.5064,2.5097,2.5107,2.5142,2.5181,2.5178,2.5225,2.5249,2.5296,2.5312,2.5348,2.5332,2.5349,2.5354,2.5358,2.5362,2.5246,2.5355,2.5354,2.5354,2.5354,2.5354,0,2.5031,2.5045,2.5081,2.5117,2.5148,2.5134,2.5162,2.5188,2.5229,2.5252,2.5284,2.5332,2.537,2.5385,2.5422,2.5449,2.5444,2.5458,2.5456,2.546,2.5374,2.536,2.5462,2.5462,2.5462,2.5462,2.5462,2.5462,2.509,2.5145,2.5149,2.5214,2.5228,2.5273,2.529,2.5313,2.5332,2.5386,2.5418,2.5427,2.5448,2.5486,2.5521,2.5524,2.5539,2.5556,2.5557,2.5476,2.5466,2.5455,2.5442,2.5559,2.5559,2.5639,2.564,2.5641]}]]